Regional Weather Roundup
Issued by NWS Cleveland, OH

Home | Current Version | Previous Version | Text Only | Print | Product List | Glossary On
Versions: 1 2 3 4 5 6 7 8 9 10 11 12 13 14 15 16 17 18 19 20 21 22 23 24 25 26 27 28 29 30 31 32 33 34 35 36 37 38 39 40 41 42 43 44 45 46 47 48 49 50
000
ASUS41 KCLE 200312
RWRCLE
OHIO REGIONAL WEATHER ROUNDUP
NATIONAL WEATHER SERVICE WILMINGTON, OH
1100 PM EDT THU OCT 19 2017

NOTE: "FAIR" INDICATES FEW OR NO CLOUDS BELOW 12,000 FEET WITH NO
SIGNIFICANT WEATHER AND/OR OBSTRUCTIONS TO VISIBILITY.

OHZ001>008-015>018-024>027-034-035-043-044-200400-
   NORTHWEST OHIO

CITY           SKY/WX    TMP DP  RH WIND       PRES   REMARKS
DEFIANCE       FAIR      47  40  76 CALM      30.20R
FINDLAY        FAIR      54  44  69 W5        30.18S
TOLEDO EXPRESS FAIR      51  43  74 SW3       30.18S
TOLEDO EXEC    FAIR      51  42  71 CALM      30.19R
LIMA           FAIR      51  49  92 CALM      30.20R
$$

OHZ009>014-019>023-028>033-038-089-200400-
   NORTHEAST OHIO

CITY           SKY/WX    TMP DP  RH WIND       PRES   REMARKS
CLE-HOPKINS    FAIR      58  50  75 W5        30.19R
CLE-LAKEFRONT  FAIR      65  47  52 NW12      30.15S
CUY CO. ARPT   PTCLDY    63  54  72 W9        30.17R
LORAIN-ELYRIA  FAIR      53  44  71 W5        30.18R
ASHTABULA      FAIR      52  51  97 CALM      30.17R
AKRON-CANTON   FAIR      56  47  71 W3        30.18S
WOOSTER        FAIR      46  45  96 W3        30.19R
MANSFIELD      FAIR      59  49  69 W5        30.20R
YOUNGSTOWN     FAIR      53  48  83 SW3       30.17S
$$

OHZ042-051>053-060>062-070>072-077>081-200400-
  SOUTHWEST OHIO

CITY           SKY/WX    TMP DP  RH WIND       PRES   REMARKS
CINC-COVINGTON MOCLDY    56  52  86 SW6       30.23S
CINC-LUNKEN    FAIR      52  52 100 CALM      30.24S FOG
HAMILTON       FAIR      50  48  93 CALM      30.23S
DAYTON         FAIR      58  51  78 SW8       30.22S
WRIGHT-PAT AFB FAIR      57  51  80 S7        30.21R
DAYTON GENERAL FAIR      58  49  72 CALM      30.22R
WILMINGTON     FAIR      57  50  77 SW5       30.22S
$$

OHZ036-037-039>041-045>050-054>059-063>069-073>076-082>088-200400-
  CENTRAL AND SOUTHEAST OHIO

CITY           SKY/WX    TMP DP  RH WIND       PRES   REMARKS
COLUMBUS       FAIR      60  51  72 S3        30.20R
OSU AIRPORT    FAIR      59  51  75 SW5       30.20R
BOLTON FIELD   FAIR      56  49  78 SW7       30.21S
RICKENBACK AFB FAIR      55  49  79 SW6       30.20S
NEWARK         FAIR      55  48  77 SW5       30.19S
MARION         FAIR      54  47  77 CALM      30.20R
LANCASTER      FAIR      58  49  72 SW6       30.21S
ZANESVILLE     FAIR      59  48  67 SW6       30.20S
NEW PHILLY     FAIR      56  49  77 E3        30.20R
$$



USA.gov is the U.S. government's official web portal to all federal, state and local government web resources and services.